Seretse Khama Intl Arpt, Botswana

4:12 PM CAT on December 05, 2016 (GMT +0200)
Seretse Khama Intl Arpt

Weather History for 68240 - October, 2012

Change the Weather History Date:

Saturday, October 13, 2012

  Actual Average Record
Temperature  
Mean Temperature 64 °F -  
Max Temperature 72 °F - - ()
Min Temperature 57 °F - - ()
Growing Degree Days 14 (Base 50)    
Moisture  
Dew Point 57 °F    
Average Humidity 77    
Maximum Humidity 94    
Minimum Humidity 55    
Precipitation  
Precipitation 0.00 in - - ()
Sea Level Pressure  
Sea Level Pressure 30.17 in    
Wind  
Wind Speed 6 mph ()    
Max Wind Speed 13 mph    
Max Gust Speed -    
Visibility 5.8 miles    
Events      
T = Trace of Precipitation, MM = Missing Value Source: Averaged Metar Reports

Daily Weather History Graph

Daily Weather History Graph

Search for Another Location

Airport or City:

Trip Planner

Search our weather history database for the weather conditions in past years. The results will help you decide how hot, cold, wet, or windy it might be!

Date:

Astronomy

Oct. 13, 2012 Rise Set
Actual Time 5:44 AM CAT 6:21 PM CAT
Civil Twilight 5:21 AM CAT 6:44 PM CAT
Nautical Twilight 4:54 AM CAT 7:11 PM CAT
Astronomical Twilight 4:26 AM CAT 7:38 PM CAT
Moon 3:56 AM CAT (10/13) 4:22 PM CAT (10/13)
Length of Visible Light 13h 22m
Length of Day
12h 36m
Waning Crescent, 6% of the Moon is Illuminated
Oct 13
Waning Crescent
Oct 15
New
Oct 22
First Quarter
Oct 29
Full
Nov 7
Last Quarter

Hourly Weather History & Observations

Time (CAT) Temp. Dew Point Humidity Pressure Visibility Wind Dir Wind Speed Gust Speed Precip Events Conditions
1:00 AM 59.0 °F 57.2 °F 94% 30.18 in - SE 4.6 mph - N/A   Clear
2:00 AM 59.0 °F 57.2 °F 94% 30.18 in 6.2 mi SE 5.8 mph - N/A   Scattered Clouds
4:00 AM 57.2 °F 55.4 °F 94% 30.15 in - SSE 4.6 mph - N/A   Clear
5:00 AM 57.2 °F 55.4 °F 94% 30.15 in 1.9 mi SE 6.9 mph - N/A   Mist
6:00 AM 57.2 °F 55.4 °F 94% 30.18 in 6.2 mi ESE 2.3 mph - N/A   Overcast
7:00 AM 59.0 °F 57.2 °F 94% 30.21 in 6.2 mi ESE 3.5 mph - N/A   Overcast
8:00 AM 62 °F 58 °F 81%  in 6 mi ENE 8.1 mph - -   Overcast
8:00 AM 62.6 °F 57.2 °F 82% 30.24 in 6.2 mi ENE 8.1 mph - N/A   Overcast
9:00 AM 62.6 °F 57.2 °F 82% 30.24 in 6.2 mi East 12.7 mph - N/A   Overcast
10:00 AM 62.6 °F 59.0 °F 88% 30.24 in 3.7 mi ENE 12.7 mph - N/A   Drizzle
11:00 AM 64.4 °F 59.0 °F 83% 30.21 in 6.2 mi ENE 10.4 mph - N/A   Overcast
12:00 PM 66.2 °F 59.0 °F 78% 30.21 in 6.2 mi ENE 12.7 mph - N/A   Overcast
1:00 PM 68.0 °F 57.2 °F 68% 30.18 in 6.2 mi NE 10.4 mph - N/A   Overcast
2:00 PM 70 °F 57 °F 55%  in 6 mi NE 9.2 mph - -   Overcast
2:00 PM 69.8 °F 57.2 °F 64% 30.15 in 6.2 mi NE 9.2 mph - N/A   Overcast
3:00 PM 71.6 °F 57.2 °F 60% 30.12 in 6.2 mi ENE 12.7 mph - N/A   Overcast
4:00 PM 71.6 °F 57.2 °F 60% 30.12 in 6.2 mi ENE 11.5 mph - N/A   Mostly Cloudy
5:00 PM 71.6 °F 57.2 °F 60% 30.09 in 6.2 mi ENE 11.5 mph - N/A   Scattered Clouds
6:00 PM 71.6 °F 55.4 °F 57% 30.12 in - ENE 9.2 mph - N/A   Clear
7:00 PM 68.0 °F 57.2 °F 68% 30.12 in - NE 4.6 mph - N/A   Clear
8:00 PM 65 °F 56 °F 65%  in 6 mi NNE 3.5 mph - -  
8:00 PM 64.4 °F 55.4 °F 73% 30.15 in - NNE 3.5 mph - N/A   Clear
9:00 PM 62.6 °F 55.4 °F 77% 30.15 in - NE 6.9 mph - N/A   Clear
10:00 PM 62.6 °F 55.4 °F 77% 30.18 in - ESE 3.5 mph - N/A   Clear
11:00 PM 60.8 °F 55.4 °F 82% 30.15 in - East 5.8 mph - N/A   Clear